| time (UTC) | temp F | wind direction | speed MPH | gust MPH | rain 1hr in | rain 24hr in | rain mn in | humidity % | barometer mb |
| 20260503013244 | 63 | 165 | 3.0 | 6.0 | 0.00 | 0.00 | 0.00 | 86 | 1011.5 |
| 20260503012741 | 63 | 168 | 2.0 | 5.0 | 0.00 | 0.00 | 0.00 | 86 | 1011.5 |
| 20260503012238 | 63 | 247 | 10.0 | 14.0 | 0.00 | 0.00 | 0.00 | 86 | 1011.5 |
| 20260503011735 | 64 | 265 | 8.0 | 10.0 | 0.00 | 0.00 | 0.00 | 85 | 1011.5 |
| 20260503011232 | 64 | 255 | 3.0 | 5.0 | 0.00 | 0.00 | 0.00 | 84 | 1011.5 |
| 20260503010728 | 64 | 157 | 6.0 | 10.0 | 0.00 | 0.00 | 0.00 | 85 | 1011.2 |
| 20260503010225 | 64 | 259 | 0.0 | 0.0 | 0.00 | 0.00 | 0.00 | 84 | 1011.5 |
| 20260503005723 | 64 | 236 | 8.0 | 9.0 | 0.00 | 0.00 | 0.00 | 83 | 1011.5 |
| 20260503005220 | 64 | 201 | 2.0 | 5.0 | 0.00 | 0.00 | 0.00 | 84 | 1011.2 |
| 20260503004716 | 64 | 264 | 8.0 | 13.0 | 0.00 | 0.00 | 0.00 | 83 | 1011.5 |
| 20260503004215 | 64 | 277 | 10.0 | 15.0 | 0.00 | 0.00 | 0.00 | 83 | 1011.2 |
| 20260503003711 | 64 | 258 | 6.0 | 7.0 | 0.00 | 0.00 | 0.00 | 84 | 1011.5 |
| 20260503003208 | 64 | 269 | 8.0 | 11.0 | 0.00 | 0.00 | 0.00 | 83 | 1011.5 |
| 20260503002705 | 64 | 221 | 11.0 | 11.0 | 0.00 | 0.00 | 0.00 | 82 | 1011.5 |
| 20260503002202 | 64 | 245 | 6.0 | 7.0 | 0.00 | 0.00 | 0.00 | 82 | 1011.5 |
| 20260503001657 | 64 | 250 | 10.0 | 14.0 | 0.00 | 0.00 | 0.00 | 82 | 1011.8 |
| 20260503001154 | 64 | 238 | 8.0 | 9.0 | 0.00 | 0.00 | 0.00 | 82 | 1011.8 |
| 20260503000652 | 64 | 222 | 6.0 | 9.0 | 0.00 | 0.00 | 0.00 | 82 | 1011.5 |
| 20260503000149 | 65 | 241 | 7.0 | 10.0 | 0.00 | 0.00 | 0.00 | 80 | 1011.8 |
| 20260502235645 | 65 | 205 | 6.0 | 8.0 | 0.00 | 0.00 | 0.00 | 82 | 1011.8 |
| 20260502235138 | 64 | 240 | 5.0 | 7.0 | 0.00 | 0.00 | 0.00 | 82 | 1011.5 |
| 20260502234634 | 64 | 241 | 8.0 | 10.0 | 0.00 | 0.00 | 0.00 | 81 | 1011.8 |
| 20260502234131 | 66 | 244 | 12.0 | 15.0 | 0.00 | 0.00 | 0.00 | 79 | 1011.8 |
| 20260502233627 | 66 | 201 | 7.0 | 9.0 | 0.00 | 0.00 | 0.00 | 79 | 1011.8 |
| 20260502233124 | 64 | 224 | 5.0 | 7.0 | 0.00 | 0.00 | 0.00 | 81 | 1011.8 |
| 20260502232620 | 64 | 250 | 6.0 | 9.0 | 0.00 | 0.00 | 0.00 | 81 | 1011.8 |
| 20260502232118 | 65 | 246 | 3.0 | 8.0 | 0.00 | 0.00 | 0.00 | 80 | 1012.2 |
| 20260502231614 | 64 | 213 | 2.0 | 3.0 | 0.00 | 0.00 | 0.00 | 82 | 1012.2 |
| 20260502231112 | 64 | 232 | 9.0 | 10.0 | 0.00 | 0.00 | 0.00 | 81 | 1012.2 |
| 20260502230610 | 65 | 182 | 7.0 | 9.0 | 0.00 | 0.00 | 0.00 | 80 | 1012.2 |
| 20260502230109 | 66 | 248 | 7.0 | 8.0 | 0.00 | 0.00 | 0.00 | 79 | 1012.2 |
| 20260502225603 | 65 | 265 | 9.0 | 10.0 | 0.00 | 0.00 | 0.00 | 80 | 1012.2 |
| 20260502225101 | 65 | 203 | 1.0 | 5.0 | 0.00 | 0.00 | 0.00 | 80 | 1012.5 |
| 20260502224557 | 64 | 242 | 13.0 | 16.0 | 0.00 | 0.00 | 0.00 | 82 | 1012.2 |
| 20260502224054 | 65 | 275 | 10.0 | 14.0 | 0.00 | 0.00 | 0.00 | 80 | 1012.2 |
| 20260502223552 | 65 | 243 | 8.0 | 9.0 | 0.00 | 0.00 | 0.00 | 80 | 1012.5 |
| 20260502223050 | 65 | 242 | 12.0 | 14.0 | 0.00 | 0.00 | 0.00 | 80 | 1013.2 |
| 20260502222546 | 66 | 286 | 8.0 | 11.0 | 0.00 | 0.00 | 0.00 | 79 | 1012.9 |
| 20260502222043 | 66 | 250 | 8.0 | 11.0 | 0.00 | 0.00 | 0.00 | 79 | 1013.2 |
| 20260502221539 | 65 | 256 | 2.0 | 7.0 | 0.00 | 0.00 | 0.00 | 82 | 1013.2 |
| 20260502221037 | 65 | 137 | 7.0 | 10.0 | 0.00 | 0.00 | 0.00 | 81 | 1013.2 |
| 20260502220532 | 65 | 195 | 8.0 | 10.0 | 0.00 | 0.00 | 0.00 | 80 | 1013.2 |
| 20260502220029 | 66 | 245 | 7.0 | 14.0 | 0.00 | 0.00 | 0.00 | 80 | 1013.5 |
| 20260502215526 | 65 | 270 | 3.0 | 7.0 | 0.00 | 0.00 | 0.00 | 80 | 1013.5 |
| 20260502215023 | 66 | 226 | 8.0 | 11.0 | 0.00 | 0.00 | 0.00 | 81 | 1013.5 |
| 20260502214520 | 66 | 176 | 7.0 | 9.0 | 0.00 | 0.00 | 0.00 | 78 | 1013.9 |
| 20260502214017 | 67 | 234 | 5.0 | 7.0 | 0.00 | 0.00 | 0.00 | 78 | 1013.9 |
| 20260502213514 | 67 | 258 | 10.0 | 13.0 | 0.00 | 0.00 | 0.00 | 79 | 1013.9 |
| 20260502213012 | 67 | 232 | 7.0 | 9.0 | 0.00 | 0.00 | 0.00 | 78 | 1013.9 |
| 20260502212510 | 66 | 238 | 8.0 | 11.0 | 0.00 | 0.00 | 0.00 | 79 | 1013.9 |
| 20260502212007 | 66 | 239 | 6.0 | 8.0 | 0.00 | 0.00 | 0.00 | 80 | 1013.9 |
| 20260502211503 | 67 | 170 | 6.0 | 8.0 | 0.00 | 0.00 | 0.00 | 80 | 1013.9 |
| 20260502211001 | 67 | 195 | 6.0 | 8.0 | 0.00 | 0.00 | 0.00 | 81 | 1013.9 |
| 20260502210457 | 67 | 217 | 5.0 | 9.0 | 0.00 | 0.00 | 0.00 | 79 | 1013.9 |
| 20260502205955 | 67 | 219 | 7.0 | 8.0 | 0.00 | 0.00 | 0.00 | 79 | 1014.2 |
| 20260502205451 | 67 | 245 | 9.0 | 14.0 | 0.00 | 0.00 | 0.00 | 78 | 1013.9 |
| 20260502204948 | 67 | 183 | 6.0 | 8.0 | 0.00 | 0.00 | 0.00 | 81 | 1014.2 |
| 20260502204445 | 67 | 243 | 0.0 | 0.0 | 0.00 | 0.00 | 0.00 | 80 | 1014.2 |
| 20260502203943 | 66 | 267 | 9.0 | 11.0 | 0.00 | 0.00 | 0.00 | 82 | 1014.2 |
| 20260502203440 | 67 | 256 | 0.0 | 2.0 | 0.00 | 0.00 | 0.00 | 80 | 1013.9 |
| 20260502202936 | 67 | 244 | 8.0 | 10.0 | 0.00 | 0.00 | 0.00 | 81 | 1014.2 |
| 20260502202433 | 67 | 221 | 7.0 | 9.0 | 0.00 | 0.00 | 0.00 | 81 | 1014.2 |
| 20260502201931 | 66 | 208 | 6.0 | 7.0 | 0.00 | 0.00 | 0.00 | 81 | 1014.2 |
| 20260502201426 | 67 | 267 | 0.0 | 2.0 | 0.00 | 0.00 | 0.00 | 81 | 1014.2 |
| 20260502200924 | 67 | 198 | 0.0 | 1.0 | 0.00 | 0.00 | 0.00 | 81 | 1014.2 |
| 20260502200419 | 66 | 230 | 6.0 | 8.0 | 0.00 | 0.00 | 0.00 | 83 | 1014.6 |
| 20260502195917 | 66 | 255 | 7.0 | 8.0 | 0.00 | 0.00 | 0.00 | 83 | 1014.2 |
| 20260502195414 | 67 | 296 | 0.0 | 0.0 | 0.00 | 0.00 | 0.00 | 82 | 1014.6 |
| 20260502194910 | 67 | 243 | 3.0 | 5.0 | 0.00 | 0.00 | 0.00 | 82 | 1014.6 |
| 20260502194408 | 66 | 183 | 7.0 | 9.0 | 0.00 | 0.00 | 0.00 | 81 | 1014.6 |
| 20260502193903 | 66 | 233 | 5.0 | 9.0 | 0.00 | 0.00 | 0.00 | 82 | 1014.9 |
| 20260502193401 | 67 | 262 | 5.0 | 7.0 | 0.00 | 0.00 | 0.00 | 82 | 1014.6 |
| 20260502192855 | 67 | 233 | 7.0 | 9.0 | 0.00 | 0.00 | 0.00 | 82 | 1014.6 |
| 20260502192353 | 67 | 164 | 8.0 | 10.0 | 0.00 | 0.00 | 0.00 | 81 | 1014.9 |
| 20260502191850 | 66 | 211 | 7.0 | 9.0 | 0.00 | 0.00 | 0.00 | 82 | 1014.9 |
| 20260502191348 | 66 | 230 | 0.0 | 0.0 | 0.00 | 0.00 | 0.00 | 82 | 1014.6 |
| 20260502190845 | 66 | 263 | 0.0 | 0.0 | 0.00 | 0.00 | 0.00 | 83 | 1014.9 |
| 20260502190342 | 66 | 163 | 0.0 | 0.0 | 0.00 | 0.00 | 0.00 | 83 | 1015.2 |
| 20260502185838 | 65 | 171 | 1.0 | 2.0 | 0.00 | 0.00 | 0.00 | 85 | 1015.2 |
| 20260502185334 | 65 | 254 | 7.0 | 8.0 | 0.00 | 0.00 | 0.00 | 86 | 1015.2 |
| 20260502184831 | 65 | 191 | 7.0 | 9.0 | 0.00 | 0.00 | 0.00 | 85 | 1015.6 |
| 20260502184326 | 65 | 230 | 6.0 | 7.0 | 0.00 | 0.00 | 0.00 | 85 | 1015.2 |
| 20260502183823 | 65 | 264 | 0.0 | 0.0 | 0.00 | 0.00 | 0.00 | 86 | 1015.2 |
| 20260502183319 | 64 | 160 | 0.0 | 0.0 | 0.00 | 0.00 | 0.00 | 86 | 1015.6 |
| 20260502182815 | 64 | 222 | 0.0 | 0.0 | 0.00 | 0.00 | 0.00 | 86 | 1015.2 |
| 20260502182310 | 65 | 248 | 0.0 | 0.0 | 0.00 | 0.00 | 0.00 | 86 | 1015.2 |
| 20260502181807 | 65 | 231 | 0.0 | 0.0 | 0.00 | 0.00 | 0.00 | 86 | 1015.6 |
| 20260502181306 | 64 | 255 | 0.0 | 0.0 | 0.00 | 0.00 | 0.00 | 87 | 1015.6 |
| 20260502180803 | 64 | 184 | 0.0 | 0.0 | 0.00 | 0.00 | 0.00 | 87 | 1015.6 |
| 20260502180300 | 64 | 281 | 0.0 | 0.0 | 0.00 | 0.00 | 0.00 | 87 | 1015.6 |
| 20260502170220 | 62 | 44 | 0.0 | 0.0 | 0.00 | 0.00 | 0.00 | 91 | 1015.6 |
| 20260502164206 | 62 | 56 | 0.0 | 0.0 | 0.00 | 0.00 | 0.00 | 92 | 1015.9 |
| 20260502163701 | 62 | 67 | 0.0 | 0.0 | 0.00 | 0.00 | 0.00 | 92 | 1015.9 |
| 20260502163154 | 62 | 55 | 0.0 | 0.0 | 0.00 | 0.00 | 0.00 | 92 | 1015.6 |
| 20260502162650 | 62 | 68 | 0.0 | 0.0 | 0.00 | 0.00 | 0.00 | 93 | 1015.9 |
| 20260502162147 | 61 | 68 | 0.0 | 0.0 | 0.00 | 0.00 | 0.00 | 93 | 1015.9 |
| 20260502161644 | 61 | 70 | 0.0 | 0.0 | 0.00 | 0.00 | 0.00 | 93 | 1015.9 |
| 20260502161140 | 61 | 76 | 0.0 | 0.0 | 0.00 | 0.00 | 0.00 | 93 | 1015.9 |
| 20260502160639 | 61 | 79 | 0.0 | 0.0 | 0.00 | 0.00 | 0.00 | 94 | 1015.9 |
| 20260502160138 | 61 | 90 | 0.0 | 0.0 | 0.00 | 0.00 | 0.00 | 94 | 1016.2 |
| 20260502152057 | 60 | 66 | 0.0 | 0.0 | 0.00 | 0.00 | 0.00 | 95 | 1015.6 |
| 20260502151554 | 60 | 72 | 0.0 | 0.0 | 0.00 | 0.00 | 0.00 | 96 | 1015.6 |
| 20260502151052 | 60 | 78 | 0.0 | 0.0 | 0.00 | 0.00 | 0.00 | 96 | 1015.9 |
| 20260502150549 | 60 | 64 | 0.0 | 0.0 | 0.00 | 0.00 | 0.00 | 96 | 1015.6 |
| 20260502130428 | 59 | 175 | 0.0 | 0.0 | 0.00 | 0.00 | 0.00 | 97 | 1014.9 |
| 20260502123410 | 59 | 183 | 0.0 | 0.0 | 0.00 | 0.00 | 0.00 | 97 | 1014.6 |
| 20260502122908 | 59 | 223 | 0.0 | 0.0 | 0.00 | 0.00 | 0.00 | 97 | 1014.9 |
| 20260502122404 | 59 | 190 | 0.0 | 0.0 | 0.00 | 0.00 | 0.00 | 97 | 1014.9 |
| 20260502121902 | 59 | 217 | 0.0 | 0.0 | 0.00 | 0.00 | 0.00 | 97 | 1014.6 |
| 20260502121359 | 59 | 173 | 0.0 | 0.0 | 0.00 | 0.00 | 0.00 | 97 | 1014.9 |
| 20260502120857 | 59 | 232 | 0.0 | 0.0 | 0.00 | 0.00 | 0.00 | 97 | 1014.6 |
| 20260502120352 | 59 | 230 | 0.0 | 0.0 | 0.00 | 0.00 | 0.00 | 97 | 1014.9 |
| 20260502115850 | 59 | 231 | 0.0 | 0.0 | 0.00 | 0.00 | 0.00 | 97 | 1014.9 |
| 20260502115347 | 59 | 238 | 0.0 | 0.0 | 0.00 | 0.00 | 0.00 | 97 | 1014.6 |
| 20260502114838 | 59 | 205 | 0.0 | 0.0 | 0.00 | 0.00 | 0.00 | 97 | 1014.6 |
| 20260502114335 | 59 | 238 | 0.0 | 0.0 | 0.00 | 0.00 | 0.00 | 97 | 1014.6 |
| 20260502113831 | 59 | 173 | 0.0 | 0.0 | 0.00 | 0.00 | 0.00 | 97 | 1014.6 |
| 20260502113329 | 59 | 114 | 0.0 | 0.0 | 0.00 | 0.00 | 0.00 | 97 | 1014.2 |
| 20260502112827 | 59 | 125 | 0.0 | 0.0 | 0.00 | 0.00 | 0.00 | 97 | 1014.2 |
| 20260502112324 | 59 | 121 | 0.0 | 0.0 | 0.00 | 0.00 | 0.00 | 97 | 1014.6 |
| 20260502111822 | 59 | 107 | 0.0 | 0.0 | 0.00 | 0.00 | 0.00 | 97 | 1014.2 |
| 20260502111319 | 59 | 133 | 0.0 | 0.0 | 0.00 | 0.00 | 0.00 | 97 | 1014.2 |
| 20260502110817 | 59 | 230 | 0.0 | 0.0 | 0.00 | 0.00 | 0.00 | 97 | 1014.6 |
| 20260502110314 | 59 | 148 | 0.0 | 0.0 | 0.00 | 0.00 | 0.00 | 97 | 1013.9 |
| 20260502105812 | 59 | 160 | 0.0 | 0.0 | 0.00 | 0.00 | 0.00 | 97 | 1014.2 |
| 20260502105308 | 59 | 76 | 0.0 | 0.0 | 0.00 | 0.00 | 0.00 | 97 | 1014.2 |
| 20260502104806 | 59 | 83 | 0.0 | 0.0 | 0.00 | 0.00 | 0.00 | 97 | 1014.2 |
| 20260502104303 | 59 | 88 | 0.0 | 0.0 | 0.00 | 0.00 | 0.00 | 98 | 1014.2 |
| 20260502103800 | 59 | 130 | 0.0 | 0.0 | 0.00 | 0.00 | 0.00 | 98 | 1014.2 |
| 20260502103257 | 59 | 145 | 0.0 | 0.0 | 0.00 | 0.00 | 0.00 | 98 | 1013.9 |
| 20260502102755 | 59 | 236 | 0.0 | 0.0 | 0.00 | 0.00 | 0.00 | 98 | 1014.2 |
| 20260502102251 | 59 | 293 | 0.0 | 0.0 | 0.00 | 0.00 | 0.00 | 98 | 1014.2 |
| 20260502101749 | 59 | 288 | 0.0 | 0.0 | 0.00 | 0.00 | 0.00 | 98 | 1014.2 |
| 20260502101247 | 59 | 283 | 0.0 | 0.0 | 0.00 | 0.00 | 0.00 | 98 | 1014.2 |
| 20260502100745 | 59 | 274 | 0.0 | 0.0 | 0.00 | 0.00 | 0.00 | 98 | 1014.2 |
| 20260502100244 | 59 | 290 | 0.0 | 0.0 | 0.00 | 0.00 | 0.00 | 98 | 1014.2 |
| 20260502091217 | 59 | 229 | 0.0 | 0.0 | 0.00 | 0.00 | 0.00 | 98 | 1014.6 |
| 20260502090715 | 59 | 197 | 0.0 | 0.0 | 0.00 | 0.00 | 0.00 | 98 | 1014.6 |
| 20260502090211 | 59 | 231 | 0.0 | 0.0 | 0.00 | 0.00 | 0.00 | 98 | 1014.6 |
| 20260502071107 | 59 | 261 | 0.0 | 0.0 | 0.00 | 0.00 | 0.00 | 97 | 1014.9 |
| 20260502070605 | 59 | 281 | 0.0 | 0.0 | 0.00 | 0.00 | 0.00 | 97 | 1015.2 |
| 20260502065601 | 59 | 254 | 0.0 | 0.0 | 0.00 | 0.00 | 0.00 | 97 | 1014.9 |
| 20260502065058 | 59 | 254 | 0.0 | 0.0 | 0.00 | 0.00 | 0.00 | 97 | 1014.9 |
| 20260502064557 | 59 | 243 | 0.0 | 0.0 | 0.00 | 0.00 | 0.00 | 97 | 1014.9 |
| 20260502064054 | 59 | 232 | 0.0 | 0.0 | 0.00 | 0.00 | 0.00 | 96 | 1014.9 |
| 20260502063551 | 59 | 236 | 0.0 | 0.0 | 0.00 | 0.00 | 0.00 | 96 | 1015.2 |
| 20260502063049 | 59 | 239 | 0.0 | 0.0 | 0.00 | 0.00 | 0.00 | 96 | 1015.2 |
| 20260502062546 | 59 | 246 | 0.0 | 0.0 | 0.00 | 0.00 | 0.00 | 96 | 1014.9 |
| 20260502062044 | 59 | 298 | 0.0 | 0.0 | 0.00 | 0.00 | 0.00 | 96 | 1014.9 |
| 20260502061542 | 59 | 242 | 0.0 | 0.0 | 0.00 | 0.00 | 0.00 | 96 | 1014.9 |
| 20260502061039 | 59 | 244 | 0.0 | 0.0 | 0.00 | 0.00 | 0.00 | 96 | 1014.9 |
| 20260502060533 | 59 | 204 | 0.0 | 0.0 | 0.00 | 0.00 | 0.00 | 96 | 1014.9 |
| 20260502060031 | 59 | 220 | 0.0 | 0.0 | 0.00 | 0.00 | 0.00 | 96 | 1014.9 |
| 20260502055528 | 59 | 225 | 0.0 | 0.0 | 0.00 | 0.00 | 0.00 | 96 | 1014.9 |
| 20260502055027 | 59 | 272 | 0.0 | 0.0 | 0.00 | 0.00 | 0.00 | 95 | 1014.9 |
| 20260502054525 | 59 | 195 | 0.0 | 0.0 | 0.00 | 0.00 | 0.00 | 95 | 1014.9 |
| 20260502054021 | 60 | 273 | 0.0 | 0.0 | 0.00 | 0.00 | 0.00 | 95 | 1014.9 |
| 20260502053518 | 60 | 289 | 0.0 | 0.0 | 0.00 | 0.00 | 0.00 | 95 | 1014.9 |
| 20260502053017 | 60 | 224 | 0.0 | 0.0 | 0.00 | 0.00 | 0.00 | 95 | 1014.9 |
| 20260502052515 | 60 | 244 | 0.0 | 0.0 | 0.00 | 0.00 | 0.00 | 95 | 1014.9 |
| 20260502052013 | 60 | 256 | 0.0 | 0.0 | 0.00 | 0.00 | 0.00 | 95 | 1014.9 |
| 20260502051510 | 60 | 230 | 3.0 | 5.0 | 0.00 | 0.00 | 0.00 | 95 | 1014.9 |
| 20260502051008 | 60 | 248 | 3.0 | 3.0 | 0.00 | 0.00 | 0.00 | 95 | 1014.9 |
| 20260502050503 | 60 | 252 | 0.0 | 0.0 | 0.00 | 0.00 | 0.00 | 94 | 1015.2 |
| 20260502050001 | 60 | 248 | 0.0 | 0.0 | 0.00 | 0.00 | 0.00 | 94 | 1014.9 |
| 20260502045457 | 60 | 170 | 0.0 | 0.0 | 0.00 | 0.00 | 0.00 | 94 | 1014.9 |
| 20260502044955 | 60 | 231 | 0.0 | 0.0 | 0.00 | 0.00 | 0.00 | 94 | 1014.9 |
| 20260502044450 | 60 | 185 | 0.0 | 0.0 | 0.00 | 0.00 | 0.00 | 94 | 1014.6 |
| 20260502043948 | 60 | 241 | 0.0 | 0.0 | 0.00 | 0.00 | 0.00 | 93 | 1014.6 |
| 20260502043445 | 60 | 231 | 0.0 | 0.0 | 0.00 | 0.00 | 0.00 | 93 | 1014.6 |
| 20260502042944 | 61 | 233 | 0.0 | 0.0 | 0.00 | 0.00 | 0.00 | 93 | 1014.6 |
| 20260502042441 | 61 | 259 | 0.0 | 0.0 | 0.00 | 0.00 | 0.00 | 93 | 1014.6 |
| 20260502041939 | 61 | 199 | 0.0 | 0.0 | 0.00 | 0.00 | 0.00 | 93 | 1014.9 |
| 20260502041437 | 61 | 191 | 0.0 | 0.0 | 0.00 | 0.00 | 0.00 | 93 | 1014.9 |
| 20260502040933 | 61 | 181 | 0.0 | 0.0 | 0.00 | 0.00 | 0.00 | 93 | 1014.2 |
| 20260502040430 | 61 | 160 | 0.0 | 0.0 | 0.00 | 0.00 | 0.00 | 93 | 1014.2 |
| 20260502035926 | 61 | 211 | 5.0 | 6.0 | 0.00 | 0.00 | 0.00 | 93 | 1014.2 |
| 20260502035423 | 61 | 242 | 1.0 | 5.0 | 0.00 | 0.00 | 0.00 | 92 | 1014.2 |
| 20260502034921 | 61 | 249 | 0.0 | 0.0 | 0.00 | 0.00 | 0.00 | 93 | 1014.2 |
| 20260502034419 | 61 | 254 | 0.0 | 0.0 | 0.00 | 0.00 | 0.00 | 93 | 1013.9 |
| 20260502033917 | 61 | 223 | 0.0 | 0.0 | 0.00 | 0.00 | 0.00 | 92 | 1013.9 |
| 20260502033414 | 61 | 224 | 0.0 | 0.0 | 0.00 | 0.00 | 0.00 | 92 | 1013.9 |
| 20260502032911 | 61 | 174 | 0.0 | 0.0 | 0.00 | 0.00 | 0.00 | 93 | 1013.9 |
| 20260502032407 | 61 | 168 | 4.0 | 5.0 | 0.00 | 0.00 | 0.00 | 93 | 1013.9 |
| 20260502031904 | 62 | 221 | 0.0 | 0.0 | 0.00 | 0.00 | 0.00 | 92 | 1013.5 |
| 20260502031403 | 62 | 246 | 0.0 | 0.0 | 0.00 | 0.00 | 0.00 | 92 | 1013.5 |
| 20260502030901 | 62 | 161 | 0.0 | 0.0 | 0.00 | 0.00 | 0.00 | 92 | 1013.5 |
| 20260502030359 | 62 | 234 | 0.0 | 2.0 | 0.00 | 0.00 | 0.00 | 92 | 1013.5 |
| 20260502025856 | 61 | 262 | 0.0 | 0.0 | 0.00 | 0.00 | 0.00 | 92 | 1013.2 |
| 20260502025353 | 62 | 198 | 1.0 | 5.0 | 0.00 | 0.00 | 0.00 | 92 | 1013.5 |
| 20260502024851 | 62 | 178 | 3.0 | 3.0 | 0.00 | 0.00 | 0.00 | 92 | 1013.2 |
| 20260502024349 | 62 | 218 | 0.0 | 0.0 | 0.00 | 0.00 | 0.00 | 92 | 1013.5 |
| 20260502023847 | 62 | 189 | 0.0 | 0.0 | 0.00 | 0.00 | 0.00 | 92 | 1013.2 |
| 20260502023344 | 62 | 186 | 4.0 | 6.0 | 0.00 | 0.00 | 0.00 | 92 | 1013.2 |
| 20260502022842 | 62 | 213 | 0.0 | 0.0 | 0.00 | 0.00 | 0.00 | 92 | 1013.2 |
| 20260502022338 | 62 | 226 | 0.0 | 1.0 | 0.00 | 0.00 | 0.00 | 91 | 1013.2 |
| 20260502021835 | 62 | 204 | 0.0 | 0.0 | 0.00 | 0.00 | 0.00 | 91 | 1013.2 |
| 20260502021332 | 62 | 237 | 6.0 | 10.0 | 0.00 | 0.00 | 0.00 | 91 | 1013.2 |
| 20260502020829 | 63 | 256 | 9.0 | 10.0 | 0.00 | 0.00 | 0.00 | 91 | 1012.9 |
| 20260502020327 | 62 | 247 | 6.0 | 9.0 | 0.00 | 0.00 | 0.00 | 91 | 1012.9 |
| 20260502015824 | 63 | 180 | 3.0 | 6.0 | 0.00 | 0.00 | 0.00 | 91 | 1013.2 |
| 20260502015321 | 63 | 191 | 5.0 | 7.0 | 0.00 | 0.00 | 0.00 | 91 | 1012.9 |
| 20260502014818 | 63 | 224 | 0.0 | 0.0 | 0.00 | 0.00 | 0.00 | 90 | 1012.9 |
| 20260502014315 | 64 | 194 | 7.0 | 8.0 | 0.00 | 0.00 | 0.00 | 89 | 1012.9 |
| 20260502013811 | 64 | 205 | 0.0 | 0.0 | 0.00 | 0.00 | 0.00 | 89 | 1012.9 |